TJS-2 (41911 NORAD) Tracking and Keplerian Element Data

This shows tracking and keplerian element data for the satellite.

Feedback or suggestion? Click here.




ElementValue
Catalog41911
NameTJS-2
Epoch Orbit1735
Epoch Day262.04671765
Epoch Year2021
RAAN284.3363
Inclination0.3207
Eccentricity0.0005823
Argument of Perigee259.8852
Mean Anonmoly257.2444
Mean Motion1.0027242
Decay Rate-3E-07
L11 41911U 17001A 21262.04671765 -.00000030 00000-0 00000+0 0 9997
L22 41911 0.3207 284.3363 0005823 259.8852 257.2444 1.00272420 17358

Live tracking and technical data element details for TJS-2 (NORAD 41911). TJS-2 can be tracked NOW for your location showing map with azimuth and elevation plus other details from your city location.

Track the satellite on the map from your city or location and see movement details for azimuth, elevation, latitude, longitude, range, height, and movement on the map or in text.







IsCatalogInMostPopularTable: catalog: 41911, numindb: 604
Update: records affected: 1



GetName: 41911 TJS-2

Hit Count: updated at: Sun, 26 Sep 2021 01:15:55 GMT